JCY300 CYSJ-EINN

Flight info

Callsign JCY300
Flight time N/A
Altitude 47000
Route YYG DCT ELSIR/M064F470 DCT 50N050W 52N040W 53N030W 53N020W DCT MALOT/N0358F470 DCT GISTI DCT ERABI ERABI3D
Aircraft C680/M-SDFGHRWY/SB1

Departure

Time 2026-04-25 15:32
Airport Saint John Airport (CYSJ)

Arrival

Time N/A
Airport Shannon Airport (EINN)
Time Latitude Longitude Altitude Speed Heading
2026-04-25 15:18 45.32838 -65.89014 334 ft 0 kts 289°
2026-04-25 15:26 45.32820 -65.89035 337 ft 6 kts 186°
2026-04-25 15:26 45.32779 -65.88962 335 ft 14 kts 116°
2026-04-25 15:27 45.32718 -65.88818 330 ft 20 kts 121°
2026-04-25 15:27 45.32638 -65.88625 326 ft 25 kts 119°
2026-04-25 15:27 45.32429 -65.88318 317 ft 21 kts 153°
2026-04-25 15:28 45.32316 -65.88249 315 ft 18 kts 183°
2026-04-25 15:28 45.32193 -65.88261 314 ft 20 kts 161°
2026-04-25 15:28 45.32054 -65.88195 314 ft 23 kts 161°
2026-04-25 15:28 45.31908 -65.88152 316 ft 21 kts 178°
2026-04-25 15:29 45.31763 -65.88191 317 ft 23 kts 212°
2026-04-25 15:29 45.31609 -65.88321 321 ft 28 kts 210°
2026-04-25 15:29 45.31435 -65.88468 327 ft 29 kts 211°
2026-04-25 15:29 45.31253 -65.88623 333 ft 32 kts 210°
2026-04-25 15:30 45.31053 -65.88792 335 ft 35 kts 210°
2026-04-25 15:30 45.30833 -65.88981 340 ft 38 kts 210°
2026-04-25 15:30 45.30598 -65.89179 347 ft 39 kts 210°
2026-04-25 15:30 45.30375 -65.89378 353 ft 34 kts 213°
2026-04-25 15:31 45.30271 -65.89494 358 ft 6 kts 147°
2026-04-25 15:31 45.30266 -65.89477 356 ft 1 kts 98°
2026-04-25 15:31 45.30289 -65.89444 354 ft 10 kts 38°
2026-04-25 15:31 45.30401 -65.89346 353 ft 34 kts 31°
2026-04-25 15:32 45.30829 -65.88985 349 ft 109 kts 31°
2026-04-25 15:32 45.31593 -65.88320 808 ft 148 kts 27°
2026-04-25 15:32 45.32537 -65.87445 1690 ft 176 kts 31°
2026-04-25 15:33 45.34628 -65.85190 3780 ft 205 kts 33°
2026-04-25 15:33 45.35849 -65.83904 4565 ft 232 kts 33°
2026-04-25 15:33 45.37166 -65.82548 5815 ft 236 kts 33°
2026-04-25 15:33 45.38531 -65.81158 6988 ft 245 kts 33°
2026-04-25 15:34 45.39928 -65.79751 8359 ft 247 kts 33°
2026-04-25 15:34 45.41364 -65.78336 9706 ft 254 kts 33°
2026-04-25 15:34 45.42846 -65.76915 10965 ft 260 kts 33°
2026-04-25 15:34 45.43846 -65.75965 11769 ft 264 kts 33°
2026-04-25 15:35 45.47508 -65.72467 14447 ft 279 kts 32°
2026-04-25 15:35 45.49140 -65.70896 15424 ft 287 kts 32°
2026-04-25 15:35 45.50797 -65.69292 16478 ft 291 kts 33°
2026-04-25 15:36 45.54310 -65.65868 17489 ft 333 kts 33°
2026-04-25 15:36 45.56311 -65.63924 17503 ft 359 kts 32°
2026-04-25 15:36 45.58399 -65.61893 17497 ft 367 kts 33°
2026-04-25 15:37 45.60519 -65.59835 17501 ft 367 kts 33°
2026-04-25 15:37 45.62607 -65.57809 17498 ft 360 kts 33°
2026-04-25 15:37 45.64660 -65.55809 17501 ft 355 kts 33°
2026-04-25 15:37 45.66714 -65.53812 17499 ft 358 kts 32°
2026-04-25 15:38 45.68766 -65.51814 17499 ft 357 kts 33°
2026-04-25 15:38 45.70822 -65.49816 17809 ft 352 kts 32°
2026-04-25 15:38 45.72768 -65.47910 19462 ft 325 kts 32°
2026-04-25 15:38 45.74563 -65.46132 20959 ft 312 kts 33°
2026-04-25 15:39 45.76387 -65.44329 21597 ft 321 kts 32°
2026-04-25 15:39 45.78233 -65.42504 22415 ft 324 kts 33°
2026-04-25 15:39 45.80107 -65.40656 23151 ft 328 kts 32°
2026-04-25 15:39 45.81998 -65.38788 23823 ft 334 kts 33°
2026-04-25 15:40 45.83878 -65.36799 24405 ft 338 kts 40°
2026-04-25 15:40 45.84391 -65.35986 24583 ft 342 kts 49°
2026-04-25 15:40 45.85848 -65.30665 25548 ft 353 kts 73°
2026-04-25 15:40 45.86404 -65.27218 26068 ft 358 kts 75°
2026-04-25 15:41 45.87044 -65.23754 26653 ft 360 kts 70°
2026-04-25 15:41 45.87809 -65.20330 27165 ft 363 kts 70°
2026-04-25 15:41 45.88583 -65.16822 27668 ft 368 kts 70°
2026-04-25 15:41 45.89286 -65.13293 28139 ft 372 kts 72°
2026-04-25 15:42 45.89990 -65.09693 28744 ft 372 kts 72°
2026-04-25 15:42 45.90720 -65.06124 29007 ft 381 kts 71°
2026-04-25 15:42 45.91503 -65.02392 29010 ft 396 kts 72°
2026-04-25 15:42 45.92293 -64.98523 29015 ft 409 kts 72°
2026-04-25 15:43 45.93089 -64.94547 29016 ft 421 kts 72°
2026-04-25 15:43 45.93900 -64.90513 29020 ft 432 kts 72°
2026-04-25 15:43 45.95622 -64.82047 29021 ft 450 kts 72°
2026-04-25 15:44 45.97378 -64.73276 29021 ft 460 kts 73°
2026-04-25 15:44 45.99137 -64.64507 29013 ft 453 kts 72°
2026-04-25 15:45 46.00850 -64.55911 29011 ft 446 kts 72°
2026-04-25 15:45 46.01689 -64.51683 29012 ft 432 kts 72°
2026-04-25 15:45 46.01955 -64.50342 29011 ft 424 kts 72°
2026-04-25 15:46 46.03232 -64.43881 29001 ft 384 kts 72°
2026-04-25 15:46 46.03941 -64.40292 28995 ft 360 kts 72°
2026-04-25 15:46 46.04602 -64.36945 28993 ft 337 kts 72°
2026-04-25 15:46 46.05225 -64.33788 28991 ft 318 kts 72°
2026-04-25 15:47 46.05807 -64.30818 28989 ft 300 kts 71°
2026-04-25 15:47 46.06359 -64.27999 28989 ft 286 kts 71°
2026-04-25 15:47 46.06893 -64.25286 28989 ft 279 kts 71°
2026-04-25 15:47 46.07424 -64.22583 28984 ft 284 kts 71°
2026-04-25 15:48 46.07970 -64.19799 28985 ft 293 kts 72°
2026-04-25 15:48 46.08525 -64.16942 28996 ft 299 kts 71°
2026-04-25 15:48 46.09085 -64.14057 28997 ft 299 kts 71°
2026-04-25 15:48 46.09648 -64.11168 28993 ft 299 kts 70°
2026-04-25 15:49 46.10206 -64.08292 28994 ft 297 kts 70°
2026-04-25 15:49 46.10761 -64.05432 28993 ft 296 kts 72°
2026-04-25 15:49 46.11315 -64.02577 28993 ft 297 kts 71°
2026-04-25 15:49 46.11870 -63.99707 28988 ft 296 kts 71°
2026-04-25 15:50 46.12423 -63.96850 28988 ft 296 kts 72°
2026-04-25 15:50 46.12974 -63.93985 28990 ft 297 kts 70°
2026-04-25 15:50 46.13524 -63.91122 28990 ft 296 kts 71°
2026-04-25 15:50 46.14077 -63.88257 28990 ft 297 kts 71°
2026-04-25 15:51 46.14628 -63.85388 28991 ft 297 kts 71°
2026-04-25 15:51 46.14807 -63.84453 28991 ft 296 kts 70°
2026-04-25 15:51 46.15724 -63.79655 28986 ft 297 kts 70°
2026-04-25 15:51 46.16275 -63.76778 28986 ft 296 kts 70°
2026-04-25 15:52 46.16823 -63.73908 28989 ft 297 kts 71°
2026-04-25 15:52 46.17367 -63.71034 28988 ft 297 kts 70°
2026-04-25 15:52 46.17914 -63.68166 28987 ft 296 kts 72°
2026-04-25 15:52 46.18461 -63.65292 28979 ft 298 kts 70°
2026-04-25 15:53 46.19569 -63.59460 28986 ft 302 kts 71°
2026-04-25 15:53 46.20660 -63.53650 28970 ft 297 kts 70°
2026-04-25 15:54 46.21201 -63.50799 28965 ft 299 kts 71°
2026-04-25 15:54 46.21747 -63.47897 28966 ft 299 kts 71°
2026-04-25 15:54 46.22291 -63.45006 28964 ft 298 kts 70°
2026-04-25 15:54 46.22831 -63.42120 28964 ft 298 kts 71°
2026-04-25 15:55 46.23373 -63.39224 28962 ft 299 kts 71°
2026-04-25 15:55 46.23917 -63.36323 28957 ft 300 kts 70°
2026-04-25 15:55 46.24284 -63.34353 28958 ft 300 kts 71°
2026-04-25 15:55 46.24827 -63.31443 28957 ft 299 kts 71°
2026-04-25 15:56 46.25368 -63.28538 28959 ft 299 kts 71°
2026-04-25 15:56 46.25904 -63.25647 28957 ft 298 kts 70°
2026-04-25 15:56 46.26442 -63.22757 28959 ft 298 kts 71°
2026-04-25 15:56 46.26981 -63.19856 28959 ft 300 kts 71°
2026-04-25 15:57 46.27520 -63.16941 28958 ft 300 kts 70°
2026-04-25 15:57 46.28062 -63.14025 28961 ft 300 kts 70°
2026-04-25 15:57 46.28823 -63.11275 28947 ft 298 kts 58°
2026-04-25 15:57 46.29811 -63.08599 28947 ft 297 kts 59°
2026-04-25 15:58 46.30756 -63.05943 28949 ft 296 kts 58°
2026-04-25 15:58 46.31680 -63.03321 28947 ft 296 kts 59°
2026-04-25 15:58 46.32618 -63.00681 28969 ft 296 kts 58°
2026-04-25 15:58 46.33563 -62.98034 28958 ft 296 kts 58°
2026-04-25 15:59 46.34505 -62.95395 28958 ft 295 kts 58°
2026-04-25 15:59 46.35445 -62.92754 28957 ft 295 kts 58°
2026-04-25 15:59 46.36392 -62.90082 28958 ft 295 kts 58°
2026-04-25 15:59 46.37332 -62.87430 28956 ft 297 kts 58°